[[{"header":{"parameterUnit":"m.s-1","parameterCategory":1,"la1":30.2991,"la2":30.254,"lo1":-89.0895,"lo2":-89.0444,"dy":0.0017,"dx":0.0017,"nx":28,"ny":28,"refTime":"2024-06-12T21:00:00:Z","depth":0,"parameterNumber":2,"parameterNumberName":"U-component_of_WINDS"},"data":[0,0,0,0,0,0,0,0,0,0,0,0,0,0,0,0,0,0,0,0,0,0,0,0,0,0,0,0,0,0,0,0,0,0,0,0,0,0,0,0,0,0,0,0,0,0,0,0,0,0,0,0,0,0,0,0,0,0,0.6113,0.6114,0,0.613,0.613,0.613,0.6103,0.6102,0.6101,0.61,0.6118,0.6119,0.612,0,0,0,0,0,0,0,0,0,0,0,0,0,0.6059,0.606,0.6113,0.6114,0.6114,0.613,0.613,0.6131,0.6103,0.6102,0.6101,0.61,0.6117,0.6119,0.612,0,0,0,0,0,0,0,0,0,0,0,0,0,0.608,0.606,0.6113,0.6102,0.6101,0.613,0.613,0.6131,0.6103,0.6102,0.61,0.6099,0.6117,0.6119,0.6121,0.6161,0,0,0.6127,0.6128,0,0,0,0,0,0,0,0,0.6078,0.6082,0.6103,0.6103,0.6102,0.6113,0.6117,0.6141,0.6104,0.6103,0.61,0.6098,0.6117,0.6119,0.6125,0.6162,0.6163,0.6127,0.6128,0.6129,0.613,0,0,0,0,0,0,0,0.6077,0.6081,0.612,0.6104,0.6103,0.6096,0.6098,0.6122,0.6118,0.6102,0.6101,0.6103,0.6116,0.6123,0.6126,0.6163,0.6127,0.6129,0.613,0.6131,0.6235,0.6237,0,0,0,0,0,0,0.6077,0.608,0.6119,0.612,0.6086,0.6099,0.61,0.6111,0.6117,0.6117,0.6104,0.6102,0.6121,0.6123,0.6126,0.6175,0.6129,0.6131,0.6132,0.6234,0.6236,0.6237,0,0,0,0,0,0,0.6076,0.6081,0.6119,0.61,0.6104,0.6101,0.6113,0.6112,0.6119,0.6118,0.6118,0.6112,0.612,0.6123,0.6153,0.6175,0.6132,0.6134,0.6232,0.6234,0.6237,0.6273,0,0,0,0,0,0,0.6074,0.608,0.6096,0.61,0.6105,0.6145,0.6115,0.6113,0.6122,0.6119,0.6126,0.6125,0.6119,0.615,0.6155,0.6177,0.6135,0.623,0.6233,0.6236,0.627,0.6276,0.6282,0,0,0,0,0,0.6072,0.6105,0.6096,0.6101,0.6124,0.6147,0.6149,0.6141,0.6124,0.614,0.614,0.6125,0.6172,0.6153,0.6159,0.6182,0.6228,0.6232,0.6236,0.6267,0.6275,0.6281,0,0,0,0,0,0,0.6103,0.6105,0.6096,0.6131,0.6139,0.6142,0.6161,0.615,0.6163,0.6159,0.6149,0.615,0.6183,0.6185,0.6164,0.6222,0.6197,0.6202,0.6219,0.6227,0.6233,0.6232,0.6137,0,0,0,0,0,0.6114,0.6132,0.6133,0.6164,0.6168,0.6164,0.6174,0.6167,0.6174,0.6178,0.618,0.6188,0.6205,0.6216,0.6231,0.627,0.6271,0.6288,0.6294,0.6299,0.6304,0.6325,0.6333,0.6249,0.6249,0.6249,0,0,0.6136,0.614,0.6152,0.617,0.6175,0.6195,0.6167,0.6188,0.6203,0.6181,0.6209,0.6211,0.622,0.6255,0.627,0.6258,0.6327,0.6304,0.6308,0.6309,0.633,0.6338,0.6345,0.6251,0.6251,0.6251,0,0,0.6187,0.6192,0.6218,0.6224,0.6233,0.623,0.6236,0.6241,0.6242,0.627,0.6255,0.6272,0.63,0.6307,0.6315,0.6369,0.6357,0.6375,0.6406,0.6428,0.6434,0.644,0.646,0.6468,0.6379,0.6379,0.6379,0,0.6214,0.6243,0.6233,0.6256,0.6265,0.6246,0.6273,0.6279,0.6293,0.6299,0.6285,0.6322,0.6326,0.6362,0.6376,0.6382,0.639,0.6374,0.6434,0.644,0.6445,0.6464,0.6472,0.6381,0.6381,0.6381,0.638,0,0.6276,0.6296,0.6316,0.633,0.6341,0.6366,0.636,0.6373,0.6365,0.6364,0.6394,0.6398,0.6415,0.6423,0.6415,0.6459,0.6451,0.6436,0.6411,0.6455,0.6473,0.6481,0.6384,0.6384,0.6383,0.6382,0,0,0.6347,0.6355,0.6363,0.6369,0.6377,0.6393,0.6417,0.6433,0.6444,0.6454,0.6475,0.65,0.6486,0.6494,0.6488,0.6506,0.655,0.6489,0.6489,0.6501,0.66,0.6612,0.662,0.6542,0.6543,0.6544,0.6599,0,0.6398,0.644,0.6433,0.6474,0.6492,0.6475,0.6496,0.6504,0.6504,0.652,0.652,0.6538,0.6518,0.6523,0.6541,0.6541,0.657,0.6537,0.6562,0.6563,0.6561,0.663,0.6642,0.6693,0.6606,0.6607,0.6608,0,0.6464,0.6477,0.6519,0.6526,0.6533,0.6552,0.6567,0.6582,0.6591,0.659,0.66,0.659,0.6614,0.6589,0.6623,0.6601,0.6611,0.6613,0.6615,0.6617,0.6589,0.6635,0.671,0.6718,0.6619,0.6618,0.6617,0,0.6512,0.654,0.6569,0.6575,0.6583,0.6597,0.6601,0.6608,0.6619,0.6631,0.6638,0.6654,0.6662,0.6675,0.667,0.6651,0.6706,0.6679,0.6706,0.6706,0.6718,0.6718,0.6797,0.6723,0.6723,0.6723,0.6723,0,0.6571,0.6598,0.6591,0.661,0.664,0.6631,0.6661,0.6663,0.667,0.6689,0.6674,0.6692,0.6684,0.6702,0.6698,0.6727,0.6731,0.6731,0.673,0.6733,0.6733,0.6739,0.6736,0.6725,0.6725,0.6724,0.6724,0,0.6631,0.6627,0.6658,0.6663,0.6665,0.6687,0.6691,0.6709,0.6707,0.6731,0.6736,0.6735,0.6755,0.6751,0.6772,0.677,0.6808,0.6801,0.6805,0.6804,0.683,0.6828,0.6917,0.6928,0.6847,0.6848,0.6849,0,0.6669,0.6689,0.6696,0.6708,0.6713,0.6732,0.6742,0.6735,0.6746,0.6758,0.6775,0.6793,0.6808,0.684,0.6841,0.6858,0.6853,0.6883,0.6855,0.6858,0.6855,0.6854,0.6856,0.6889,0.6889,0.689,0.6891,0,0.6737,0.6734,0.675,0.6766,0.6779,0.6791,0.6801,0.6812,0.6805,0.6819,0.6839,0.6851,0.6873,0.6892,0.6908,0.6912,0.6901,0.6899,0.6907,0.691,0.6912,0.6912,0.682,0.6898,0.6897,0.6896,0.6896,0.6896,0.6788,0.6805,0.6814,0.6832,0.6839,0.6849,0.6866,0.6867,0.6884,0.6902,0.6896,0.692,0.6928,0.6949,0.6955,0.6973,0.6962,0.6972,0.6975,0.6978,0.6982,0.6908,0.6976,0.6976,0.6976,0.6975,0.6975,0,0.6856,0.686,0.6877,0.6893,0.6908,0.6895,0.6906,0.692,0.694,0.6949,0.6964,0.6988,0.7006,0.7009,0.7027,0.7041,0.7036,0.7046,0.7045,0.7047,0.699,0.6982,0.705,0.705,0.705,0.705,0.705,0.705,0.6893,0.6923,0.6922,0.6955,0.6959,0.6982,0.699,0.6999,0.7007,0.7034,0.7049,0.7051,0.7058,0.7076,0.7093,0.7093,0.71,0.7112,0.7111,0.7058,0.7051,0.7044,0.7036,0.7114,0.7114,0.7166,0.7167,0.7167]},{"header":{"parameterUnit":"m.s-1","parameterCategory":1,"la1":30.2991,"la2":30.254,"lo1":-89.0895,"lo2":-89.0444,"dy":0.0017,"dx":0.0017,"nx":28,"ny":28,"refTime":"2024-06-12T21:00:00:Z","depth":0,"parameterNumber":3,"parameterNumberName":"V-component_of_WINDS"},"data":[0,0,0,0,0,0,0,0,0,0,0,0,0,0,0,0,0,0,0,0,0,0,0,0,0,0,0,0,0,0,0,0,0,0,0,0,0,0,0,0,0,0,0,0,0,0,0,0,0,0,0,0,0,0,0,0,0,0,-2.5807,-2.5807,0,-2.5869,-2.587,-2.587,-2.5851,-2.5849,-2.5848,-2.5847,-2.5908,-2.591,-2.5913,0,0,0,0,0,0,0,0,0,0,0,0,0,-2.5668,-2.567,-2.5807,-2.5807,-2.5808,-2.5869,-2.587,-2.587,-2.5851,-2.5849,-2.5848,-2.5846,-2.5907,-2.591,-2.5913,0,0,0,0,0,0,0,0,0,0,0,0,0,-2.5729,-2.5671,-2.5806,-2.5806,-2.5806,-2.5869,-2.587,-2.5871,-2.5851,-2.5849,-2.5847,-2.5845,-2.5905,-2.591,-2.5914,-2.598,0,0,-2.5927,-2.5929,0,0,0,0,0,0,0,0,-2.5725,-2.5734,-2.5805,-2.5806,-2.5807,-2.585,-2.5843,-2.5907,-2.5852,-2.5834,-2.5847,-2.5844,-2.589,-2.5895,-2.5911,-2.5983,-2.5985,-2.5927,-2.593,-2.5932,-2.5933,0,0,0,0,0,0,0,-2.5721,-2.5731,-2.5831,-2.5806,-2.5807,-2.5801,-2.5808,-2.5855,-2.5872,-2.5835,-2.5834,-2.5842,-2.589,-2.5907,-2.5912,-2.5986,-2.5927,-2.5931,-2.5934,-2.5935,-2.6114,-2.6116,0,0,0,0,0,0,-2.5717,-2.5728,-2.5829,-2.5833,-2.576,-2.5805,-2.5813,-2.5838,-2.5872,-2.5875,-2.5844,-2.5841,-2.5901,-2.5907,-2.5914,-2.5993,-2.5932,-2.5936,-2.5938,-2.6112,-2.6114,-2.6117,0,0,0,0,0,0,-2.5714,-2.5726,-2.5827,-2.578,-2.5792,-2.581,-2.5839,-2.584,-2.5858,-2.5878,-2.588,-2.5858,-2.5899,-2.5908,-2.5964,-2.5995,-2.5938,-2.5941,-2.6109,-2.6113,-2.6116,-2.6152,0,0,0,0,0,0,-2.571,-2.5725,-2.5751,-2.5781,-2.5795,-2.5876,-2.5841,-2.5843,-2.5865,-2.5862,-2.5892,-2.5895,-2.5899,-2.5957,-2.5968,-2.6,-2.5945,-2.6106,-2.6111,-2.6114,-2.6148,-2.6156,-2.6163,0,0,0,0,0,-2.5705,-2.5758,-2.5752,-2.5765,-2.5828,-2.5878,-2.5886,-2.5889,-2.5868,-2.5894,-2.5907,-2.5894,-2.599,-2.5963,-2.5975,-2.6009,-2.6104,-2.6109,-2.6114,-2.6144,-2.6154,-2.6162,0,0,0,0,0,0,-2.5731,-2.5762,-2.5756,-2.5821,-2.5847,-2.5874,-2.5907,-2.59,-2.5931,-2.5927,-2.5929,-2.5936,-2.5993,-2.6006,-2.5976,-2.6074,-2.6044,-2.6051,-2.6063,-2.6072,-2.608,-2.6075,-2.5948,0,0,0,0,0,-2.5744,-2.5783,-2.5808,-2.5862,-2.5876,-2.5889,-2.5911,-2.5911,-2.5938,-2.5949,-2.5966,-2.5991,-2.6027,-2.6051,-2.6085,-2.615,-2.6155,-2.6179,-2.6186,-2.6192,-2.6198,-2.6233,-2.6243,-2.6133,-2.6133,-2.6133,0,0,-2.5771,-2.5793,-2.5817,-2.5868,-2.5888,-2.5927,-2.5898,-2.5941,-2.597,-2.5955,-2.6008,-2.6022,-2.605,-2.6111,-2.6138,-2.6124,-2.623,-2.6199,-2.6203,-2.6206,-2.6239,-2.625,-2.6259,-2.6136,-2.6136,-2.6135,0,0,-2.5841,-2.5862,-2.591,-2.5931,-2.5962,-2.5971,-2.5982,-2.6011,-2.602,-2.6074,-2.6063,-2.6097,-2.6159,-2.618,-2.6198,-2.6276,-2.6266,-2.6287,-2.6326,-2.636,-2.6368,-2.6376,-2.6403,-2.6413,-2.6294,-2.6294,-2.6294,0,-2.5871,-2.593,-2.5935,-2.5978,-2.6,-2.599,-2.6037,-2.6057,-2.6098,-2.6113,-2.6097,-2.6174,-2.6193,-2.6257,-2.6276,-2.6292,-2.6304,-2.6284,-2.6367,-2.6375,-2.6382,-2.6408,-2.6418,-2.6296,-2.6296,-2.6296,-2.6295,0,-2.5965,-2.6006,-2.6041,-2.6081,-2.6107,-2.6153,-2.6163,-2.6188,-2.6187,-2.6197,-2.6251,-2.6274,-2.6312,-2.6327,-2.6326,-2.6392,-2.6382,-2.6366,-2.6336,-2.6395,-2.6419,-2.6429,-2.6299,-2.6299,-2.6298,-2.6297,0,0,-2.6052,-2.6095,-2.6107,-2.6125,-2.6159,-2.6191,-2.6235,-2.6274,-2.6295,-2.6324,-2.636,-2.6413,-2.6399,-2.6421,-2.6421,-2.6451,-2.6511,-2.6432,-2.6433,-2.6445,-2.6584,-2.6594,-2.6606,-2.6504,-2.6506,-2.6508,-2.6581,0,-2.6124,-2.6203,-2.6208,-2.628,-2.6317,-2.6308,-2.6347,-2.6372,-2.6382,-2.6415,-2.6426,-2.6464,-2.6443,-2.6455,-2.6485,-2.6497,-2.6538,-2.6492,-2.6537,-2.6539,-2.653,-2.6619,-2.663,-2.6698,-2.659,-2.6592,-2.6593,0,-2.6218,-2.6251,-2.6326,-2.6355,-2.6371,-2.6406,-2.6441,-2.6473,-2.65,-2.6506,-2.653,-2.6527,-2.6571,-2.654,-2.6601,-2.657,-2.6589,-2.6598,-2.66,-2.6604,-2.6569,-2.6623,-2.672,-2.673,-2.6608,-2.6607,-2.6606,0,-2.6273,-2.6335,-2.6388,-2.6404,-2.6439,-2.6464,-2.6479,-2.6505,-2.6528,-2.6559,-2.6573,-2.6608,-2.6627,-2.6654,-2.666,-2.6637,-2.6721,-2.6691,-2.6726,-2.6726,-2.6743,-2.6741,-2.6842,-2.6757,-2.6757,-2.6756,-2.6756,0,-2.6352,-2.6399,-2.6413,-2.6446,-2.6497,-2.6503,-2.6553,-2.6567,-2.659,-2.6624,-2.6618,-2.665,-2.6656,-2.669,-2.6694,-2.6744,-2.6753,-2.6757,-2.6758,-2.6758,-2.6757,-2.6769,-2.6764,-2.6759,-2.6758,-2.6758,-2.6757,0,-2.6422,-2.6434,-2.6491,-2.652,-2.6528,-2.6564,-2.6588,-2.6619,-2.6629,-2.6673,-2.6683,-2.6699,-2.6738,-2.6747,-2.6793,-2.6796,-2.6854,-2.685,-2.6845,-2.6844,-2.6878,-2.6875,-2.699,-2.7005,-2.691,-2.6911,-2.6912,0,-2.6471,-2.6507,-2.6539,-2.6563,-2.658,-2.6617,-2.664,-2.6646,-2.6671,-2.6705,-2.6731,-2.677,-2.68,-2.6863,-2.6877,-2.6912,-2.6909,-2.6947,-2.6914,-2.6912,-2.6908,-2.6906,-2.6909,-2.6953,-2.6954,-2.6955,-2.6955,0,-2.6557,-2.6561,-2.6596,-2.6633,-2.6661,-2.669,-2.6717,-2.6736,-2.6746,-2.6774,-2.6814,-2.6838,-2.6885,-2.6923,-2.6958,-2.6973,-2.6965,-2.6966,-2.6976,-2.6975,-2.697,-2.6972,-2.6861,-2.6963,-2.6962,-2.6961,-2.6961,-2.6961,-2.6617,-2.6648,-2.6676,-2.6715,-2.6736,-2.6762,-2.6793,-2.6807,-2.6841,-2.688,-2.6882,-2.6925,-2.6951,-2.6998,-2.7015,-2.7048,-2.7036,-2.7051,-2.7054,-2.7057,-2.706,-2.6966,-2.7055,-2.7055,-2.7054,-2.7054,-2.7054,0,-2.6702,-2.672,-2.6756,-2.6795,-2.6825,-2.6817,-2.6847,-2.6872,-2.6911,-2.6936,-2.6967,-2.7013,-2.7049,-2.7067,-2.7103,-2.7126,-2.7124,-2.7135,-2.7133,-2.7137,-2.7069,-2.7057,-2.7137,-2.7137,-2.7137,-2.7137,-2.7137,-2.7137,-2.675,-2.6802,-2.6809,-2.6871,-2.6889,-2.6932,-2.695,-2.6973,-2.6994,-2.7045,-2.7076,-2.7088,-2.711,-2.7148,-2.7181,-2.7185,-2.7198,-2.7211,-2.7213,-2.715,-2.7141,-2.7133,-2.7122,-2.7214,-2.7214,-2.7278,-2.7279,-2.7279]}]]